"Sample Date","Sample Time","Sensor Name","Sample Value","Units","Flow Rate","Sample Interval","Sample Volume","Laser Status","Number Channels","Micron Size 0","Counts/Channel 0","Micron Size 1","Counts/Channel 1","Micron Size 2","Counts/Channel 2","Micron Size 3","Counts/Channel 3","Micron Size 4","Counts/Channel 4","Micron Size 5","Counts/Channel 5","Micron Size 6","Counts/Channel 6","Micron Size 7","Counts/Channel 7","Micron Size 8","Counts/Channel 8","Micron Size 9","Counts/Channel 9","Micron Size 10","Counts/Channel 10","Micron Size 11","Counts/Channel 11","Micron Size 12","Counts/Channel 12","Micron Size 13","Counts/Channel 13","Micron Size 14","Counts/Channel 14","Micron Size 15","Counts/Channel 15","Micron Size 16","Counts/Channel 16","Micron Size 17","Counts/Channel 17","Micron Size 18","Counts/Channel 18","Micron Size 19","Counts/Channel 19","Micron Size 20","Counts/Channel 20","Micron Size 21","Counts/Channel 21","Micron Size 22","Counts/Channel 22","Micron Size 23","Counts/Channel 23","Micron Size 24","Counts/Channel 24","Micron Size 25","Counts/Channel 25","Micron Size 26","Counts/Channel 26","Micron Size 27","Counts/Channel 27","Micron Size 28","Counts/Channel 28","Micron Size 29","Counts/Channel 29","Micron Size 30","Counts/Channel 30","Micron Size 31","Counts/Channel 31"
"07/02/06","09:00:03","AMMA06",66165.000,"cc",28300.664,6.00,2830.067,1,6,0.100,31054.000,0.200,26650.000,0.300,5696.000,0.500,1595.000,1.000,1170.000,5.000,0
"07/02/06","09:00:09","AMMA06",66283.000,"cc",28322.734,6.00,2832.274,1,6,0.100,31338.000,0.200,26373.000,0.300,5784.000,0.500,1692.000,1.000,1096.000,5.000,0
"07/02/06","09:00:15","AMMA06",66453.000,"cc",28351.238,6.00,2835.124,1,6,0.100,31498.000,0.200,26475.000,0.300,5731.000,0.500,1624.000,1.000,1124.000,5.000,1.000
"07/02/06","09:00:21","AMMA06",66654.000,"cc",28353.180,6.00,2835.318,1,6,0.100,31600.000,0.200,26498.000,0.300,5808.000,0.500,1606.000,1.000,1140.000,5.000,2.000
"07/02/06","09:00:27","AMMA06",65771.000,"cc",28319.775,6.00,2831.978,1,6,0.100,31156.000,0.200,26065.000,0.300,5739.000,0.500,1630.000,1.000,1179.000,5.000,2.000
"07/02/06","09:00:33","AMMA06",66150.000,"cc",28227.295,6.00,2822.730,1,6,0.100,31141.000,0.200,26553.000,0.300,5642.000,0.500,1649.000,1.000,1165.000,5.000,0
"07/02/06","09:00:39","AMMA06",66472.000,"cc",28287.826,6.00,2828.783,1,6,0.100,31220.000,0.200,26711.000,0.300,5793.000,0.500,1588.000,1.000,1159.000,5.000,1.000
"07/02/06","09:00:45","AMMA06",66369.000,"cc",28332.656,6.00,2833.266,1,6,0.100,31431.000,0.200,26388.000,0.300,5815.000,0.500,1597.000,1.000,1138.000,5.000,0
"07/02/06","09:00:51","AMMA06",66858.000,"cc",28298.307,6.00,2829.831,1,6,0.100,31505.000,0.200,26717.000,0.300,5835.000,0.500,1656.000,1.000,1143.000,5.000,2.000
"07/02/06","09:00:57","AMMA06",66652.000,"cc",28314.809,6.00,2831.481,1,6,0.100,31389.000,0.200,26799.000,0.300,5699.000,0.500,1618.000,1.000,1145.000,5.000,2.000
"07/02/06","09:01:03","AMMA06",66673.000,"cc",28345.303,6.00,2834.531,1,6,0.100,31533.000,0.200,26512.000,0.300,5785.000,0.500,1666.000,1.000,1175.000,5.000,2.000
"07/02/06","09:01:09","AMMA06",66264.000,"cc",28335.072,6.00,2833.507,1,6,0.100,31132.000,0.200,26635.000,0.300,5671.000,0.500,1694.000,1.000,1132.000,5.000,0
"07/02/06","09:01:15","AMMA06",66412.000,"cc",28338.848,6.00,2833.885,1,6,0.100,31453.000,0.200,26505.000,0.300,5746.000,0.500,1686.000,1.000,1022.000,5.000,0
"07/02/06","09:01:21","AMMA06",66754.000,"cc",28322.842,6.00,2832.284,1,6,0.100,31680.000,0.200,26366.000,0.300,5782.000,0.500,1728.000,1.000,1196.000,5.000,2.000
"07/02/06","09:01:27","AMMA06",66415.000,"cc",28308.445,6.00,2830.845,1,6,0.100,31485.000,0.200,26462.000,0.300,5717.000,0.500,1633.000,1.000,1118.000,5.000,0
"07/02/06","09:01:33","AMMA06",66427.000,"cc",28304.029,6.00,2830.403,1,6,0.100,31477.000,0.200,26519.000,0.300,5588.000,0.500,1645.000,1.000,1197.000,5.000,1.000
"07/02/06","09:01:39","AMMA06",66637.000,"cc",28283.770,6.00,2828.377,1,6,0.100,31570.000,0.200,26592.000,0.300,5717.000,0.500,1638.000,1.000,1120.000,5.000,0
"07/02/06","09:01:45","AMMA06",66410.000,"cc",28342.523,6.00,2834.252,1,6,0.100,31583.000,0.200,26480.000,0.300,5631.000,0.500,1610.000,1.000,1104.000,5.000,2.000
"07/02/06","09:01:51","AMMA06",66530.000,"cc",28337.631,6.00,2833.763,1,6,0.100,31695.000,0.200,26307.000,0.300,5619.000,0.500,1707.000,1.000,1200.000,5.000,2.000
"07/02/06","09:01:57","AMMA06",67134.000,"cc",28302.949,6.00,2830.295,1,6,0.100,32032.000,0.200,26592.000,0.300,5677.000,0.500,1680.000,1.000,1153.000,5.000,0
"07/02/06","09:02:03","AMMA06",66642.000,"cc",28314.979,6.00,2831.498,1,6,0.100,31560.000,0.200,26501.000,0.300,5727.000,0.500,1632.000,1.000,1220.000,5.000,2.000
"07/02/06","09:02:09","AMMA06",66430.000,"cc",28353.760,6.00,2835.376,1,6,0.100,31578.000,0.200,26573.000,0.300,5542.000,0.500,1643.000,1.000,1094.000,5.000,0
"07/02/06","09:02:15","AMMA06",66477.000,"cc",28252.066,6.00,2825.207,1,6,0.100,31414.000,0.200,26439.000,0.300,5794.000,0.500,1684.000,1.000,1145.000,5.000,1.000
"07/02/06","09:02:21","AMMA06",66806.000,"cc",28350.693,6.00,2835.070,1,6,0.100,31644.000,0.200,26647.000,0.300,5652.000,0.500,1711.000,1.000,1149.000,5.000,3.000
"07/02/06","09:02:27","AMMA06",67068.000,"cc",28322.637,6.00,2832.264,1,6,0.100,32256.000,0.200,26400.000,0.300,5578.000,0.500,1647.000,1.000,1187.000,5.000,0
"07/02/06","09:02:33","AMMA06",66591.000,"cc",28307.789,6.00,2830.779,1,6,0.100,31401.000,0.200,26642.000,0.300,5768.000,0.500,1629.000,1.000,1151.000,5.000,0
"07/02/06","09:02:39","AMMA06",66420.000,"cc",28355.658,6.00,2835.566,1,6,0.100,31671.000,0.200,26377.000,0.300,5615.000,0.500,1605.000,1.000,1151.000,5.000,1.000
"07/02/06","09:02:45","AMMA06",66725.000,"cc",28281.791,6.00,2828.179,1,6,0.100,31651.000,0.200,26562.000,0.300,5791.000,0.500,1604.000,1.000,1115.000,5.000,2.000
"07/02/06","09:02:51","AMMA06",66746.000,"cc",28330.713,6.00,2833.072,1,6,0.100,31493.000,0.200,26637.000,0.300,5794.000,0.500,1627.000,1.000,1192.000,5.000,3.000
"07/02/06","09:02:57","AMMA06",66605.000,"cc",28305.469,6.00,2830.547,1,6,0.100,31516.000,0.200,26887.000,0.300,5523.000,0.500,1567.000,1.000,1109.000,5.000,3.000
"07/02/06","09:03:03","AMMA06",66578.000,"cc",28311.432,6.00,2831.143,1,6,0.100,31558.000,0.200,26514.000,0.300,5783.000,0.500,1638.000,1.000,1084.000,5.000,1.000
"07/02/06","09:03:09","AMMA06",67122.000,"cc",28339.568,6.00,2833.957,1,6,0.100,31719.000,0.200,26869.000,0.300,5756.000,0.500,1643.000,1.000,1135.000,5.000,0
"07/02/06","09:03:15","AMMA06",66614.000,"cc",28315.660,6.00,2831.566,1,6,0.100,31605.000,0.200,26653.000,0.300,5619.000,0.500,1631.000,1.000,1105.000,5.000,1.000
"07/02/06","09:03:21","AMMA06",66756.000,"cc",28317.910,6.00,2831.791,1,6,0.100,31490.000,0.200,26597.000,0.300,5766.000,0.500,1755.000,1.000,1146.000,5.000,2.000
"07/02/06","09:03:27","AMMA06",66872.000,"cc",28304.184,6.00,2830.419,1,6,0.100,31466.000,0.200,26810.000,0.300,5693.000,0.500,1699.000,1.000,1203.000,5.000,1.000
"07/02/06","09:03:33","AMMA06",67227.000,"cc",28333.648,6.00,2833.365,1,6,0.100,31625.000,0.200,26997.000,0.300,5860.000,0.500,1599.000,1.000,1143.000,5.000,3.000
"07/02/06","09:03:39","AMMA06",66772.000,"cc",28355.690,6.00,2835.569,1,6,0.100,31420.000,0.200,26689.000,0.300,5771.000,0.500,1653.000,1.000,1235.000,5.000,4.000
"07/02/06","09:03:45","AMMA06",66790.000,"cc",28301.619,6.00,2830.162,1,6,0.100,31325.000,0.200,26906.000,0.300,5775.000,0.500,1671.000,1.000,1111.000,5.000,2.000
"07/02/06","09:03:51","AMMA06",66741.000,"cc",28317.279,6.00,2831.728,1,6,0.100,31808.000,0.200,26301.000,0.300,5855.000,0.500,1657.000,1.000,1118.000,5.000,2.000
"07/02/06","09:03:57","AMMA06",67031.000,"cc",28261.854,6.00,2826.186,1,6,0.100,31479.000,0.200,26702.000,0.300,5918.000,0.500,1721.000,1.000,1208.000,5.000,3.000
"07/02/06","09:04:03","AMMA06",66955.000,"cc",28370.242,6.00,2837.024,1,6,0.100,31413.000,0.200,26979.000,0.300,5820.000,0.500,1632.000,1.000,1110.000,5.000,1.000
"07/02/06","09:04:09","AMMA06",66598.000,"cc",28282.602,6.00,2828.260,1,6,0.100,31125.000,0.200,26835.000,0.300,5802.000,0.500,1654.000,1.000,1179.000,5.000,3.000
"07/02/06","09:04:15","AMMA06",66944.000,"cc",28304.508,6.00,2830.451,1,6,0.100,31616.000,0.200,26721.000,0.300,5761.000,0.500,1715.000,1.000,1131.000,5.000,0
"07/02/06","09:04:21","AMMA06",66727.000,"cc",28302.352,6.00,2830.235,1,6,0.100,31463.000,0.200,26513.000,0.300,5901.000,0.500,1649.000,1.000,1198.000,5.000,3.000
"07/02/06","09:04:27","AMMA06",66587.000,"cc",28326.676,6.00,2832.668,1,6,0.100,31139.000,0.200,26791.000,0.300,5802.000,0.500,1704.000,1.000,1148.000,5.000,3.000
"07/02/06","09:04:33","AMMA06",66338.000,"cc",28270.203,6.00,2827.021,1,6,0.100,31175.000,0.200,26476.000,0.300,5863.000,0.500,1618.000,1.000,1205.000,5.000,1.000
"07/02/06","09:04:39","AMMA06",66662.000,"cc",28315.016,6.00,2831.502,1,6,0.100,31106.000,0.200,26837.000,0.300,5872.000,0.500,1744.000,1.000,1102.000,5.000,1.000
"07/02/06","09:04:45","AMMA06",66921.000,"cc",28338.783,6.00,2833.878,1,6,0.100,31422.000,0.200,26793.000,0.300,5975.000,0.500,1587.000,1.000,1144.000,5.000,0
"07/02/06","09:04:51","AMMA06",66762.000,"cc",28294.889,6.00,2829.489,1,6,0.100,31576.000,0.200,26599.000,0.300,5718.000,0.500,1656.000,1.000,1212.000,5.000,1.000
"07/02/06","09:04:57","AMMA06",67319.000,"cc",28344.744,6.00,2834.475,1,6,0.100,31633.000,0.200,26941.000,0.300,5856.000,0.500,1657.000,1.000,1230.000,5.000,2.000
"07/02/06","09:05:03","AMMA06",67160.000,"cc",28348.992,6.00,2834.899,1,6,0.100,31722.000,0.200,26831.000,0.300,5763.000,0.500,1615.000,1.000,1227.000,5.000,2.000
"07/02/06","09:05:09","AMMA06",66723.000,"cc",28333.619,6.00,2833.362,1,6,0.100,31357.000,0.200,26658.000,0.300,5877.000,0.500,1651.000,1.000,1178.000,5.000,2.000
"07/02/06","09:05:15","AMMA06",66404.000,"cc",28291.158,6.00,2829.116,1,6,0.100,31450.000,0.200,26374.000,0.300,5790.000,0.500,1647.000,1.000,1141.000,5.000,2.000
"07/02/06","09:05:21","AMMA06",67053.000,"cc",28268.092,6.00,2826.809,1,6,0.100,31487.000,0.200,26856.000,0.300,5855.000,0.500,1652.000,1.000,1203.000,5.000,0
"07/02/06","09:05:27","AMMA06",67154.000,"cc",28353.965,6.00,2835.397,1,6,0.100,31773.000,0.200,26720.000,0.300,5843.000,0.500,1678.000,1.000,1140.000,5.000,0
"07/02/06","09:05:33","AMMA06",67383.000,"cc",28341.432,6.00,2834.143,1,6,0.100,31915.000,0.200,26891.000,0.300,5770.000,0.500,1644.000,1.000,1163.000,5.000,0
"07/02/06","09:05:39","AMMA06",66915.000,"cc",28294.111,6.00,2829.411,1,6,0.100,31842.000,0.200,26444.000,0.300,5809.000,0.500,1662.000,1.000,1158.000,5.000,0
"07/02/06","09:05:45","AMMA06",67079.000,"cc",28315.572,6.00,2831.557,1,6,0.100,31934.000,0.200,26573.000,0.300,5717.000,0.500,1654.000,1.000,1199.000,5.000,2.000
"07/02/06","09:05:51","AMMA06",66193.000,"cc",28307.477,6.00,2830.748,1,6,0.100,31515.000,0.200,26328.000,0.300,5647.000,0.500,1572.000,1.000,1128.000,5.000,3.000
"07/02/06","09:05:57","AMMA06",66572.000,"cc",28314.434,6.00,2831.444,1,6,0.100,31485.000,0.200,26643.000,0.300,5724.000,0.500,1606.000,1.000,1113.000,5.000,1.000
"07/02/06","09:06:03","AMMA06",66989.000,"cc",28345.963,6.00,2834.596,1,6,0.100,31913.000,0.200,26560.000,0.300,5688.000,0.500,1661.000,1.000,1167.000,5.000,0
"07/02/06","09:06:09","AMMA06",67199.000,"cc",28327.057,6.00,2832.706,1,6,0.100,31846.000,0.200,26722.000,0.300,5740.000,0.500,1717.000,1.000,1174.000,5.000,0
"07/02/06","09:06:15","AMMA06",66454.000,"cc",28285.215,6.00,2828.522,1,6,0.100,31671.000,0.200,26388.000,0.300,5562.000,0.500,1656.000,1.000,1177.000,5.000,0
"07/02/06","09:06:21","AMMA06",66677.000,"cc",28291.756,6.00,2829.176,1,6,0.100,31934.000,0.200,26378.000,0.300,5583.000,0.500,1673.000,1.000,1108.000,5.000,1.000
"07/02/06","09:06:27","AMMA06",66440.000,"cc",28297.828,6.00,2829.783,1,6,0.100,31952.000,0.200,26165.000,0.300,5550.000,0.500,1659.000,1.000,1112.000,5.000,2.000
"07/02/06","09:06:33","AMMA06",66432.000,"cc",28346.016,6.00,2834.602,1,6,0.100,31907.000,0.200,26160.000,0.300,5448.000,0.500,1714.000,1.000,1203.000,5.000,0
"07/02/06","09:06:39","AMMA06",66219.000,"cc",28290.889,6.00,2829.089,1,6,0.100,31629.000,0.200,26374.000,0.300,5453.000,0.500,1633.000,1.000,1127.000,5.000,3.000
"07/02/06","09:06:45","AMMA06",66196.000,"cc",28295.635,6.00,2829.564,1,6,0.100,31761.000,0.200,26021.000,0.300,5617.000,0.500,1641.000,1.000,1156.000,5.000,0
"07/02/06","09:06:51","AMMA06",66366.000,"cc",28327.020,6.00,2832.702,1,6,0.100,32079.000,0.200,26054.000,0.300,5444.000,0.500,1639.000,1.000,1148.000,5.000,2.000
"07/02/06","09:06:57","AMMA06",66341.000,"cc",28367.260,6.00,2836.726,1,6,0.100,32052.000,0.200,26057.000,0.300,5466.000,0.500,1633.000,1.000,1131.000,5.000,2.000
"07/02/06","09:07:03","AMMA06",66148.000,"cc",28304.936,6.00,2830.494,1,6,0.100,31583.000,0.200,26196.000,0.300,5469.000,0.500,1706.000,1.000,1193.000,5.000,1.000
"07/02/06","09:07:09","AMMA06",66253.000,"cc",28286.920,6.00,2828.692,1,6,0.100,31908.000,0.200,26136.000,0.300,5464.000,0.500,1625.000,1.000,1119.000,5.000,1.000
"07/02/06","09:07:15","AMMA06",66631.000,"cc",28278.852,6.00,2827.885,1,6,0.100,32151.000,0.200,26079.000,0.300,5475.000,0.500,1731.000,1.000,1194.000,5.000,1.000
"07/02/06","09:07:21","AMMA06",66461.000,"cc",28373.168,6.00,2837.317,1,6,0.100,32058.000,0.200,26067.000,0.300,5507.000,0.500,1627.000,1.000,1200.000,5.000,2.000
"07/02/06","09:07:27","AMMA06",66566.000,"cc",28298.666,6.00,2829.867,1,6,0.100,32152.000,0.200,26090.000,0.300,5568.000,0.500,1618.000,1.000,1137.000,5.000,1.000
"07/02/06","09:07:33","AMMA06",66492.000,"cc",28330.621,6.00,2833.062,1,6,0.100,32111.000,0.200,26097.000,0.300,5519.000,0.500,1599.000,1.000,1165.000,5.000,1.000
"07/02/06","09:07:39","AMMA06",66303.000,"cc",28351.139,6.00,2835.114,1,6,0.100,32010.000,0.200,26051.000,0.300,5402.000,0.500,1721.000,1.000,1118.000,5.000,1.000
"07/02/06","09:07:45","AMMA06",66594.000,"cc",28356.881,6.00,2835.688,1,6,0.100,32156.000,0.200,26140.000,0.300,5540.000,0.500,1639.000,1.000,1119.000,5.000,0
"07/02/06","09:07:51","AMMA06",65980.000,"cc",28293.053,6.00,2829.305,1,6,0.100,31588.000,0.200,26126.000,0.300,5533.000,0.500,1608.000,1.000,1125.000,5.000,0
"07/02/06","09:07:57","AMMA06",66422.000,"cc",28256.045,6.00,2825.605,1,6,0.100,31821.000,0.200,26305.000,0.300,5575.000,0.500,1642.000,1.000,1078.000,5.000,1.000
"07/02/06","09:08:03","AMMA06",66108.000,"cc",28280.424,6.00,2828.043,1,6,0.100,31886.000,0.200,25958.000,0.300,5462.000,0.500,1666.000,1.000,1136.000,5.000,0
"07/02/06","09:08:09","AMMA06",66591.000,"cc",28285.625,6.00,2828.563,1,6,0.100,32234.000,0.200,26324.000,0.300,5404.000,0.500,1582.000,1.000,1045.000,5.000,2.000
"07/02/06","09:08:15","AMMA06",66843.000,"cc",28350.795,6.00,2835.080,1,6,0.100,32066.000,0.200,26325.000,0.300,5592.000,0.500,1669.000,1.000,1190.000,5.000,1.000
"07/02/06","09:08:21","AMMA06",66505.000,"cc",28390.721,6.00,2839.072,1,6,0.100,31852.000,0.200,26195.000,0.300,5563.000,0.500,1702.000,1.000,1191.000,5.000,2.000
"07/02/06","09:08:27","AMMA06",65765.000,"cc",28277.387,6.00,2827.739,1,6,0.100,31539.000,0.200,25976.000,0.300,5467.000,0.500,1631.000,1.000,1149.000,5.000,3.000
"07/02/06","09:08:33","AMMA06",66335.000,"cc",28319.434,6.00,2831.944,1,6,0.100,31649.000,0.200,26145.000,0.300,5728.000,0.500,1624.000,1.000,1189.000,5.000,0
"07/02/06","09:08:39","AMMA06",67119.000,"cc",28293.873,6.00,2829.388,1,6,0.100,32122.000,0.200,26651.000,0.300,5518.000,0.500,1638.000,1.000,1190.000,5.000,0
"07/02/06","09:08:45","AMMA06",66339.000,"cc",28347.381,6.00,2834.738,1,6,0.100,31698.000,0.200,26311.000,0.300,5609.000,0.500,1605.000,1.000,1114.000,5.000,2.000
"07/02/06","09:08:51","AMMA06",66764.000,"cc",28322.012,6.00,2832.201,1,6,0.100,32047.000,0.200,26462.000,0.300,5549.000,0.500,1589.000,1.000,1116.000,5.000,1.000
"07/02/06","09:08:57","AMMA06",66722.000,"cc",28329.920,6.00,2832.992,1,6,0.100,31760.000,0.200,26459.000,0.300,5708.000,0.500,1671.000,1.000,1124.000,5.000,0
"07/02/06","09:09:03","AMMA06",66614.000,"cc",28333.486,6.00,2833.349,1,6,0.100,31634.000,0.200,26583.000,0.300,5599.000,0.500,1626.000,1.000,1171.000,5.000,1.000
"07/02/06","09:09:09","AMMA06",66945.000,"cc",28307.270,6.00,2830.727,1,6,0.100,31630.000,0.200,26706.000,0.300,5779.000,0.500,1626.000,1.000,1203.000,5.000,1.000
"07/02/06","09:09:15","AMMA06",66423.000,"cc",28297.633,6.00,2829.763,1,6,0.100,31911.000,0.200,26042.000,0.300,5599.000,0.500,1682.000,1.000,1187.000,5.000,2.000
"07/02/06","09:09:21","AMMA06",66952.000,"cc",28309.887,6.00,2830.989,1,6,0.100,31656.000,0.200,26702.000,0.300,5729.000,0.500,1632.000,1.000,1233.000,5.000,0
"07/02/06","09:09:27","AMMA06",66969.000,"cc",28313.266,6.00,2831.327,1,6,0.100,31907.000,0.200,26660.000,0.300,5738.000,0.500,1597.000,1.000,1067.000,5.000,0
"07/02/06","09:09:33","AMMA06",66406.000,"cc",28274.068,6.00,2827.407,1,6,0.100,31553.000,0.200,26465.000,0.300,5648.000,0.500,1583.000,1.000,1155.000,5.000,2.000
"07/02/06","09:09:39","AMMA06",66700.000,"cc",28295.205,6.00,2829.521,1,6,0.100,31583.000,0.200,26557.000,0.300,5783.000,0.500,1601.000,1.000,1175.000,5.000,1.000
"07/02/06","09:09:45","AMMA06",66763.000,"cc",28368.250,6.00,2836.825,1,6,0.100,31815.000,0.200,26443.000,0.300,5678.000,0.500,1637.000,1.000,1188.000,5.000,2.000
"07/02/06","09:09:51","AMMA06",66717.000,"cc",28318.969,6.00,2831.897,1,6,0.100,31890.000,0.200,26325.000,0.300,5654.000,0.500,1695.000,1.000,1149.000,5.000,4.000
"07/02/06","09:09:57","AMMA06",66847.000,"cc",28310.088,6.00,2831.009,1,6,0.100,31697.000,0.200,26652.000,0.300,5626.000,0.500,1628.000,1.000,1241.000,5.000,3.000
"07/02/06","09:10:03","AMMA06",66712.000,"cc",28305.131,6.00,2830.513,1,6,0.100,31613.000,0.200,26676.000,0.300,5699.000,0.500,1601.000,1.000,1123.000,5.000,0
"07/02/06","09:10:09","AMMA06",67185.000,"cc",28316.961,6.00,2831.696,1,6,0.100,32211.000,0.200,26525.000,0.300,5663.000,0.500,1637.000,1.000,1145.000,5.000,4.000
"07/02/06","09:10:15","AMMA06",66828.000,"cc",28290.023,6.00,2829.002,1,6,0.100,31703.000,0.200,26681.000,0.300,5641.000,0.500,1580.000,1.000,1221.000,5.000,2.000
"07/02/06","09:10:21","AMMA06",66899.000,"cc",28356.072,6.00,2835.607,1,6,0.100,31872.000,0.200,26555.000,0.300,5743.000,0.500,1619.000,1.000,1110.000,5.000,0
"07/02/06","09:10:27","AMMA06",66452.000,"cc",28332.293,6.00,2833.230,1,6,0.100,31617.000,0.200,26324.000,0.300,5717.000,0.500,1600.000,1.000,1193.000,5.000,1.000
"07/02/06","09:10:33","AMMA06",66829.000,"cc",28289.262,6.00,2828.926,1,6,0.100,31912.000,0.200,26522.000,0.300,5678.000,0.500,1591.000,1.000,1125.000,5.000,1.000
"07/02/06","09:10:39","AMMA06",67034.000,"cc",28276.684,6.00,2827.669,1,6,0.100,31872.000,0.200,26592.000,0.300,5760.000,0.500,1590.000,1.000,1220.000,5.000,0
"07/02/06","09:10:45","AMMA06",66922.000,"cc",28321.957,6.00,2832.196,1,6,0.100,31886.000,0.200,26400.000,0.300,5857.000,0.500,1647.000,1.000,1132.000,5.000,0
"07/02/06","09:10:51","AMMA06",66761.000,"cc",28380.953,6.00,2838.096,1,6,0.100,31877.000,0.200,26323.000,0.300,5759.000,0.500,1655.000,1.000,1146.000,5.000,1.000
"07/02/06","09:10:57","AMMA06",66768.000,"cc",28290.660,6.00,2829.066,1,6,0.100,31877.000,0.200,26407.000,0.300,5668.000,0.500,1625.000,1.000,1188.000,5.000,3.000
"07/02/06","09:11:03","AMMA06",67126.000,"cc",28331.191,6.00,2833.119,1,6,0.100,32065.000,0.200,26378.000,0.300,5860.000,0.500,1622.000,1.000,1201.000,5.000,0
"07/02/06","09:11:09","AMMA06",66811.000,"cc",28325.811,6.00,2832.581,1,6,0.100,31892.000,0.200,26304.000,0.300,5800.000,0.500,1637.000,1.000,1176.000,5.000,2.000
"07/02/06","09:11:15","AMMA06",66825.000,"cc",28283.906,6.00,2828.391,1,6,0.100,31900.000,0.200,26541.000,0.300,5690.000,0.500,1550.000,1.000,1143.000,5.000,1.000
"07/02/06","09:11:21","AMMA06",67146.000,"cc",28296.824,6.00,2829.683,1,6,0.100,31895.000,0.200,26623.000,0.300,5774.000,0.500,1651.000,1.000,1201.000,5.000,2.000
"07/02/06","09:11:27","AMMA06",66579.000,"cc",28323.584,6.00,2832.359,1,6,0.100,31662.000,0.200,26416.000,0.300,5689.000,0.500,1619.000,1.000,1191.000,5.000,2.000
"07/02/06","09:11:33","AMMA06",66621.000,"cc",28332.967,6.00,2833.297,1,6,0.100,31385.000,0.200,26625.000,0.300,5873.000,0.500,1583.000,1.000,1155.000,5.000,0
"07/02/06","09:11:39","AMMA06",66724.000,"cc",28284.219,6.00,2828.422,1,6,0.100,31487.000,0.200,26737.000,0.300,5676.000,0.500,1667.000,1.000,1156.000,5.000,1.000
"07/02/06","09:11:45","AMMA06",66256.000,"cc",28353.672,6.00,2835.367,1,6,0.100,31206.000,0.200,26596.000,0.300,5664.000,0.500,1619.000,1.000,1169.000,5.000,2.000
"07/02/06","09:11:51","AMMA06",66027.000,"cc",28321.229,6.00,2832.123,1,6,0.100,31234.000,0.200,26423.000,0.300,5708.000,0.500,1610.000,1.000,1051.000,5.000,1.000
"07/02/06","09:11:57","AMMA06",66522.000,"cc",28353.857,6.00,2835.386,1,6,0.100,31478.000,0.200,26524.000,0.300,5760.000,0.500,1641.000,1.000,1119.000,5.000,0
"07/02/06","09:12:03","AMMA06",66577.000,"cc",28296.615,6.00,2829.662,1,6,0.100,31814.000,0.200,26363.000,0.300,5612.000,0.500,1632.000,1.000,1153.000,5.000,3.000
"07/02/06","09:12:09","AMMA06",66275.000,"cc",28304.320,6.00,2830.432,1,6,0.100,31474.000,0.200,26317.000,0.300,5648.000,0.500,1676.000,1.000,1159.000,5.000,1.000
"07/02/06","09:12:15","AMMA06",66319.000,"cc",28308.764,6.00,2830.877,1,6,0.100,31798.000,0.200,26249.000,0.300,5510.000,0.500,1627.000,1.000,1135.000,5.000,0
"07/02/06","09:12:21","AMMA06",66323.000,"cc",28322.285,6.00,2832.229,1,6,0.100,31666.000,0.200,26303.000,0.300,5684.000,0.500,1588.000,1.000,1082.000,5.000,0
"07/02/06","09:12:27","AMMA06",65946.000,"cc",28320.914,6.00,2832.092,1,6,0.100,31790.000,0.200,26057.000,0.300,5400.000,0.500,1593.000,1.000,1104.000,5.000,2.000
"07/02/06","09:12:33","AMMA06",66507.000,"cc",28333.523,6.00,2833.353,1,6,0.100,31772.000,0.200,26328.000,0.300,5635.000,0.500,1649.000,1.000,1123.000,5.000,0
"07/02/06","09:12:39","AMMA06",66677.000,"cc",28328.631,6.00,2832.863,1,6,0.100,32062.000,0.200,26238.000,0.300,5570.000,0.500,1642.000,1.000,1163.000,5.000,2.000
"07/02/06","09:12:45","AMMA06",66620.000,"cc",28261.992,6.00,2826.200,1,6,0.100,32305.000,0.200,26095.000,0.300,5423.000,0.500,1673.000,1.000,1123.000,5.000,1.000
"07/02/06","09:12:51","AMMA06",66721.000,"cc",28324.734,6.00,2832.474,1,6,0.100,32465.000,0.200,26096.000,0.300,5410.000,0.500,1624.000,1.000,1125.000,5.000,1.000
"07/02/06","09:12:57","AMMA06",66210.000,"cc",28325.652,6.00,2832.565,1,6,0.100,31872.000,0.200,26056.000,0.300,5403.000,0.500,1716.000,1.000,1162.000,5.000,1.000
"07/02/06","09:13:03","AMMA06",66532.000,"cc",28323.270,6.00,2832.327,1,6,0.100,32152.000,0.200,26034.000,0.300,5528.000,0.500,1706.000,1.000,1112.000,5.000,0
"07/02/06","09:13:09","AMMA06",66590.000,"cc",28310.258,6.00,2831.026,1,6,0.100,32357.000,0.200,25951.000,0.300,5443.000,0.500,1709.000,1.000,1130.000,5.000,0
"07/02/06","09:13:15","AMMA06",66815.000,"cc",28350.299,6.00,2835.030,1,6,0.100,32220.000,0.200,26397.000,0.300,5334.000,0.500,1644.000,1.000,1220.000,5.000,0
"07/02/06","09:13:21","AMMA06",66311.000,"cc",28376.471,6.00,2837.647,1,6,0.100,32119.000,0.200,26004.000,0.300,5452.000,0.500,1641.000,1.000,1094.000,5.000,1.000
"07/02/06","09:13:27","AMMA06",66421.000,"cc",28299.988,6.00,2829.999,1,6,0.100,31997.000,0.200,26135.000,0.300,5499.000,0.500,1622.000,1.000,1167.000,5.000,1.000
"07/02/06","09:13:33","AMMA06",66075.000,"cc",28285.760,6.00,2828.576,1,6,0.100,32332.000,0.200,25411.000,0.300,5536.000,0.500,1650.000,1.000,1146.000,5.000,0
"07/02/06","09:13:39","AMMA06",66283.000,"cc",28246.645,6.00,2824.665,1,6,0.100,32305.000,0.200,25747.000,0.300,5404.000,0.500,1696.000,1.000,1130.000,5.000,1.000
"07/02/06","09:13:45","AMMA06",65953.000,"cc",28327.682,6.00,2832.768,1,6,0.100,32149.000,0.200,25673.000,0.300,5363.000,0.500,1625.000,1.000,1143.000,5.000,0
"07/02/06","09:13:51","AMMA06",66554.000,"cc",28327.813,6.00,2832.782,1,6,0.100,32302.000,0.200,25863.000,0.300,5478.000,0.500,1747.000,1.000,1162.000,5.000,2.000